Weather History for KVOK - October, 2012

Change the Weather History Date:

Tuesday, October 9, 2012

  Actual Average Record
Temperature  
Mean Temperature 46 °F -  
Max Temperature 55 °F 59 °F 79 °F (2010)
Min Temperature 37 °F 41 °F 28 °F (2014)
Degree Days  
Heating Degree Days 19    
Moisture  
Dew Point 39 °F    
Average Humidity 77    
Maximum Humidity 93    
Minimum Humidity 42    
Precipitation  
Precipitation 0.01 in - - ()
Sea Level Pressure  
Sea Level Pressure 29.80 in    
Wind  
Wind Speed 11 mph (SW)    
Max Wind Speed 21 mph    
Max Gust Speed 26 mph    
Visibility 9 miles    
Events Rain    
Averages and records for this station are not official NWS values.
T = Trace of Precipitation, MM = Missing Value Source: NWS Daily Summary

Daily Weather History Graph

Daily Weather History Graph

Search for Another Location

Airport or City:

Trip Planner

Search our weather history database for the weather conditions in past years. The results will help you decide how hot, cold, wet, or windy it might be!

Date:

Astronomy

Oct. 09, 2012 Rise Set
Actual Time 7:08 AM CDT 6:26 PM CDT
Civil Twilight 6:39 AM CDT 6:55 PM CDT
Nautical Twilight 6:06 AM CDT 7:28 PM CDT
Astronomical Twilight 5:33 AM CDT 8:02 PM CDT
Moon 12:33 AM CDT (10/9) 3:04 PM CDT (10/9)
Length of Visible Light 12h 15m
Length of Day
11h 17m
Last Quarter, 36% of the Moon is Illuminated
Oct 9
Last Quarter
Oct 15
New
Oct 21
First Quarter
Oct 29
Full
Nov 6
Last Quarter

Hourly Weather History & Observations

Time (CDT) Temp. Windchill Dew Point Humidity Pressure Visibility Wind Dir Wind Speed Gust Speed Precip Events Conditions
12:55 AM 55.6 °F - 32.5 °F 42% 29.77 in 10.0 mi SSW 18.4 mph 26.5 mph N/A   Mostly Cloudy
1:55 AM 55.2 °F - 33.3 °F 43% 29.78 in 10.0 mi SW 12.7 mph 20.7 mph N/A   Mostly Cloudy
2:55 AM 55.0 °F - 34.3 °F 46% 29.79 in 10.0 mi SW 12.7 mph - N/A   Overcast
3:55 AM 54.1 °F - 34.9 °F 48% 29.77 in 10.0 mi South 6.9 mph - N/A   Overcast
4:55 AM 54.0 °F - 34.9 °F 49% 29.77 in 10.0 mi SSW 10.4 mph - N/A   Overcast
5:55 AM 52.2 °F - 36.5 °F 55% 29.77 in 10.0 mi SSW 8.1 mph - N/A   Mostly Cloudy
6:04 AM 51.8 °F - 37.4 °F 58% 29.77 in 10.0 mi SSW 9.2 mph - N/A Rain Light Rain
6:16 AM 50.0 °F - 39.2 °F 66% 29.77 in 10.0 mi South 6.9 mph - N/A   Mostly Cloudy
6:26 AM 50.0 °F - 39.2 °F 66% 29.78 in 10.0 mi South 9.2 mph - N/A   Light Drizzle
6:55 AM 47.8 °F - 41.7 °F 79% 29.78 in 10.0 mi South 10.4 mph - 0.01 in Rain Light Rain
7:55 AM 46.4 °F 41.9 °F 42.8 °F 87% 29.78 in 10.0 mi South 9.2 mph 17.3 mph N/A   Mostly Cloudy
8:55 AM 46.4 °F 41.1 °F 42.8 °F 87% 29.79 in 6.0 mi SSW 11.5 mph 17.3 mph N/A Rain Light Rain
9:55 AM 46.4 °F 42.9 °F 42.8 °F 87% 29.78 in 10.0 mi SW 6.9 mph - N/A   Overcast
10:55 AM 48.2 °F - 42.8 °F 82% 29.77 in 10.0 mi WSW 5.8 mph - N/A   Overcast
11:17 AM 48.2 °F - 42.8 °F 82% 29.78 in 6.0 mi West 6.9 mph - N/A Rain Light Rain
11:40 AM 48.2 °F - 44.6 °F 87% 29.76 in 10.0 mi WSW 8.1 mph - N/A Rain Light Rain
11:55 AM 48.2 °F - 44.6 °F 87% 29.77 in 6.0 mi WSW 8.1 mph - N/A Rain Light Rain
12:55 PM 48.2 °F - 46.4 °F 93% 29.77 in 5.0 mi SW 12.7 mph 17.3 mph N/A Rain Light Rain
1:40 PM 50.0 °F - 46.4 °F 87% 29.76 in 9.0 mi WNW 18.4 mph 24.2 mph N/A Rain Light Rain
1:55 PM 46.4 °F 38.7 °F 42.8 °F 87% 29.79 in 5.0 mi WNW 20.7 mph 24.2 mph N/A Rain Light Rain
2:55 PM 42.8 °F 36.6 °F 41.0 °F 93% 29.81 in 6.0 mi West 11.5 mph - N/A Rain Light Rain
3:55 PM 42.8 °F 37.0 °F 39.2 °F 87% 29.83 in 10.0 mi West 10.4 mph - N/A Rain Light Rain
4:02 PM 42.8 °F 38.0 °F 39.2 °F 87% 29.81 in 10.0 mi WSW 8.1 mph - N/A   Mostly Cloudy
4:55 PM 42.8 °F 38.6 °F 41.0 °F 93% 29.83 in 10.0 mi SW 6.9 mph - N/A   Mostly Cloudy
5:50 PM 42.8 °F 40.1 °F 41.0 °F 93% 29.81 in 10.0 mi SSW 4.6 mph - N/A   Mostly Cloudy
5:55 PM 42.8 °F 39.3 °F 41.0 °F 93% 29.83 in 10.0 mi SSW 5.8 mph - N/A   Mostly Cloudy
6:55 PM 42.8 °F 37.5 °F 39.2 °F 87% 29.83 in 10.0 mi SW 9.2 mph - N/A   Mostly Cloudy
7:55 PM 42.8 °F 37.5 °F 39.2 °F 87% 29.85 in 10.0 mi West 9.2 mph - N/A   Mostly Cloudy
8:55 PM 39.2 °F 34.2 °F 35.6 °F 87% 29.86 in 10.0 mi West 6.9 mph - N/A   Mostly Cloudy
9:55 PM 37.4 °F 31.4 °F 32.0 °F 81% 29.87 in 10.0 mi West 8.1 mph - N/A   Mostly Cloudy
10:55 PM 39.2 °F 32.5 °F 33.8 °F 81% 29.89 in 10.0 mi West 10.4 mph - N/A   Overcast
11:55 PM 37.4 °F 31.4 °F 33.8 °F 87% 29.90 in 10.0 mi WNW 8.1 mph - N/A   Scattered Clouds